When you browse on this site, cookies collect data to enhance your experience and personalize the content and advertising you see.
Visit our Privacy Policy to learn more. By continuing to use the site, you agree to this use of cookies and data.
  • In Slovakia
  • List of Countries
  • For 7 days
  • Water Temperature
  • Satellite Maps
  • Weather Map
  • Weather Widgets
  • user-avatar
    Login

    Hourly Weather La Massana

    Today, 12 December, Wednesday

    Time Temperature Precipitation Wind Pressure Humidity
    00:00 0°C° 0 mm 1 mps 610 mmHg 60%
    01:00 -2°C° 0 mm 2 mps 610 mmHg 61%
    02:00 -2°C° 0 mm 2 mps 610 mmHg 61%
    03:00 -2°C° 0 mm 2 mps 610 mmHg 62%
    04:00 -2°C° 0 mm 2 mps 610 mmHg 62%
    05:00 -3°C° 0 mm 2 mps 610 mmHg 63%
    06:00 -3°C° 0 mm 2 mps 610 mmHg 64%
    07:00 -2°C° 0 mm 2 mps 610 mmHg 61%
    08:00 -1°C° 0 mm 2 mps 611 mmHg 59%
    09:00 +2°C° 0 mm 1 mps 611 mmHg 56%
    10:00 +3°C° 0 mm 1 mps 612 mmHg 56%
    11:00 +4°C° 0 mm 1 mps 612 mmHg 56%
    12:00 +6°C° 0 mm 1 mps 612 mmHg 56%
    13:00 +5°C° 0 mm 1 mps 611 mmHg 61%
    14:00 +4°C° 0 mm 1 mps 611 mmHg 65%
    15:00 +4°C° 0 mm 1 mps 610 mmHg 70%
    16:00 +2°C° 0 mm 1 mps 610 mmHg 76%
    17:00 0°C° 0 mm 0 mps 609 mmHg 83%
    18:00 -1°C° 0 mm 0 mps 608 mmHg 89%
    19:00 -1°C° 0 mm 0 mps 608 mmHg 88%
    20:00 0°C° 0 mm 1 mps 608 mmHg 87%
    21:00 -1°C° 0 mm 1 mps 608 mmHg 86%
    22:00 -1°C° 0 mm 1 mps 607 mmHg 85%
    23:00 -1°C° 0 mm 1 mps 607 mmHg 84%

    Tomorrow, 13 December, Thursday

    Time Temperature Precipitation Wind Pressure Humidity
    00:00 -1°C° 0 mm 1 mps 606 mmHg 83%
    01:00 -1°C° 0 mm 1 mps 606 mmHg 84%
    02:00 -1°C° 0 mm 1 mps 605 mmHg 86%
    03:00 -1°C° 0 mm 1 mps 605 mmHg 87%
    04:00 -1°C° 0.1 mm 1 mps 604 mmHg 86%
    05:00 0°C° 0.1 mm 1 mps 604 mmHg 84%
    06:00 0°C° 0.1 mm 1 mps 603 mmHg 83%
    07:00 0°C° 0.3 mm 1 mps 603 mmHg 83%
    08:00 0°C° 0.3 mm 1 mps 603 mmHg 84%
    09:00 0°C° 0.3 mm 1 mps 603 mmHg 84%
    10:00 +1°C° 0.2 mm 1 mps 603 mmHg 83%
    11:00 +1°C° 0.2 mm 1 mps 603 mmHg 81%
    12:00 +2°C° 0.2 mm 1 mps 603 mmHg 80%
    13:00 +1°C° 0.7 mm 1 mps 602 mmHg 83%
    14:00 -1°C° 0.7 mm 2 mps 602 mmHg 86%
    15:00 -1°C° 0.7 mm 3 mps 602 mmHg 90%
    16:00 -2°C° 0.5 mm 3 mps 602 mmHg 89%
    17:00 -4°C° 0.5 mm 3 mps 602 mmHg 88%
    18:00 -4°C° 0.5 mm 3 mps 602 mmHg 87%
    19:00 -4°C° 0.4 mm 3 mps 602 mmHg 86%
    20:00 -4°C° 0.4 mm 4 mps 603 mmHg 86%
    21:00 -4°C° 0.4 mm 4 mps 603 mmHg 85%
    22:00 -4°C° 0.4 mm 4 mps 604 mmHg 86%
    23:00 -4°C° 0.4 mm 4 mps 604 mmHg 86%

    Day after tomorrow, 14 December, Friday

    Time Temperature Precipitation Wind Pressure Humidity
    00:00 -4°C° 0.4 mm 4 mps 604 mmHg 86%
    01:00 -4°C° 0.2 mm 4 mps 605 mmHg 86%
    02:00 -4°C° 0.2 mm 4 mps 605 mmHg 85%
    03:00 -4°C° 0.2 mm 4 mps 605 mmHg 85%
    04:00 -4°C° 0.1 mm 4 mps 605 mmHg 85%
    05:00 -5°C° 0.1 mm 4 mps 606 mmHg 85%
    06:00 -5°C° 0.1 mm 4 mps 606 mmHg 85%
    07:00 -4°C° 0 mm 4 mps 606 mmHg 83%
    08:00 -4°C° 0 mm 4 mps 607 mmHg 81%
    09:00 -4°C° 0 mm 4 mps 608 mmHg 79%
    10:00 -3°C° 0 mm 4 mps 608 mmHg 75%
    11:00 -2°C° 0 mm 4 mps 609 mmHg 71%
    12:00 -1°C° 0 mm 4 mps 610 mmHg 67%
    13:00 -2°C° 0 mm 4 mps 610 mmHg 68%
    14:00 -2°C° 0 mm 4 mps 610 mmHg 68%
    15:00 -1°C° 0 mm 3 mps 610 mmHg 69%
    16:00 -2°C° 0 mm 3 mps 610 mmHg 72%
    17:00 -4°C° 0 mm 3 mps 610 mmHg 76%
    18:00 -5°C° 0 mm 3 mps 610 mmHg 79%
    19:00 -5°C° 0 mm 3 mps 610 mmHg 79%
    20:00 -5°C° 0 mm 3 mps 610 mmHg 78%
    21:00 -6°C° 0 mm 3 mps 610 mmHg 78%
    22:00 -5°C° 0 mm 2 mps 610 mmHg 76%
    23:00 -5°C° 0 mm 2 mps 610 mmHg 74%

    15 December, Saturday

    Time Temperature Precipitation Wind Pressure Humidity
    00:00 -5°C° 0 mm 2 mps 610 mmHg 72%
    01:00 -5°C° 0 mm 2 mps 610 mmHg 70%
    02:00 -5°C° 0 mm 2 mps 610 mmHg 68%
    03:00 -5°C° 0 mm 2 mps 610 mmHg 66%
    04:00 -5°C° 0 mm 2 mps 610 mmHg 66%
    05:00 -4°C° 0 mm 2 mps 610 mmHg 66%
    06:00 -4°C° 0 mm 2 mps 611 mmHg 66%
    07:00 -2°C° 0 mm 2 mps 611 mmHg 67%
    08:00 -1°C° 0 mm 2 mps 612 mmHg 69%
    09:00 +2°C° 0 mm 1 mps 613 mmHg 70%
    10:00 +4°C° 0.1 mm 1 mps 613 mmHg 70%
    11:00 +5°C° 0.1 mm 1 mps 614 mmHg 71%
    12:00 +6°C° 0.1 mm 1 mps 614 mmHg 71%
    13:00 +5°C° 0.2 mm 1 mps 614 mmHg 75%
    14:00 +5°C° 0.2 mm 1 mps 613 mmHg 79%
    15:00 +5°C° 0.2 mm 1 mps 613 mmHg 83%
    16:00 +4°C° 0 mm 1 mps 613 mmHg 85%
    17:00 +3°C° 0 mm 1 mps 613 mmHg 87%
    18:00 +3°C° 0 mm 1 mps 612 mmHg 89%
    19:00 +3°C° 0 mm 1 mps 612 mmHg 88%
    20:00 +3°C° 0 mm 1 mps 613 mmHg 87%
    21:00 +3°C° 0 mm 1 mps 613 mmHg 86%
    22:00 +2°C° 0 mm 1 mps 612 mmHg 86%
    23:00 +2°C° 0 mm 1 mps 612 mmHg 86%

    16 December, Sunday

    Time Temperature Precipitation Wind Pressure Humidity
    00:00 +2°C° 0 mm 1 mps 612 mmHg 86%
    01:00 +2°C° 0 mm 1 mps 612 mmHg 86%
    02:00 +2°C° 0 mm 1 mps 611 mmHg 86%
    03:00 +2°C° 0 mm 1 mps 611 mmHg 86%
    04:00 +2°C° 0 mm 1 mps 611 mmHg 85%
    05:00 +2°C° 0 mm 1 mps 611 mmHg 84%
    06:00 +2°C° 0 mm 1 mps 611 mmHg 82%
    07:00 +3°C° 0 mm 1 mps 612 mmHg 79%
    08:00 +4°C° 0 mm 1 mps 612 mmHg 76%
    09:00 +4°C° 0 mm 1 mps 613 mmHg 73%
    10:00 +6°C° 0 mm 1 mps 613 mmHg 69%
    11:00 +7°C° 0 mm 1 mps 614 mmHg 66%
    12:00 +7°C° 0 mm 2 mps 614 mmHg 63%
    13:00 +7°C° 0 mm 2 mps 613 mmHg 65%
    14:00 +6°C° 0 mm 2 mps 613 mmHg 67%
    15:00 +6°C° 0 mm 2 mps 613 mmHg 70%
    16:00 +5°C° 0 mm 1 mps 612 mmHg 73%
    17:00 +3°C° 0 mm 1 mps 612 mmHg 76%
    18:00 +2°C° 0 mm 1 mps 611 mmHg 80%
    19:00 +1°C° 0 mm 1 mps 611 mmHg 76%
    20:00 +1°C° 0 mm 1 mps 611 mmHg 72%
    21:00 +1°C° 0 mm 1 mps 611 mmHg 68%
    22:00 +1°C° 0 mm 1 mps 610 mmHg 67%
    23:00 -1°C° 0 mm 2 mps 610 mmHg 66%

    17 December, Monday

    Time Temperature Precipitation Wind Pressure Humidity
    00:00 -1°C° 0 mm 2 mps 610 mmHg 64%
    01:00 -1°C° 0 mm 2 mps 610 mmHg 67%
    02:00 +1°C° 0 mm 1 mps 610 mmHg 70%
    03:00 +1°C° 0 mm 1 mps 610 mmHg 74%
    04:00 +1°C° 0 mm 1 mps 610 mmHg 75%
    05:00 +1°C° 0 mm 1 mps 610 mmHg 77%
    06:00 +1°C° 0 mm 1 mps 610 mmHg 79%
    07:00 +2°C° 0 mm 1 mps 610 mmHg 78%
    08:00 +2°C° 0 mm 1 mps 611 mmHg 77%
    09:00 +3°C° 0 mm 1 mps 612 mmHg 76%
    10:00 +3°C° 0.1 mm 1 mps 612 mmHg 73%
    11:00 +3°C° 0.1 mm 2 mps 612 mmHg 71%
    12:00 +3°C° 0.1 mm 2 mps 612 mmHg 69%
    13:00 +3°C° 0.6 mm 2 mps 612 mmHg 72%
    14:00 +2°C° 0.6 mm 2 mps 612 mmHg 76%
    15:00 +1°C° 0.6 mm 2 mps 612 mmHg 79%
    16:00 -1°C° 0.1 mm 2 mps 612 mmHg 83%
    17:00 -1°C° 0.1 mm 2 mps 612 mmHg 87%
    18:00 -2°C° 0.1 mm 2 mps 612 mmHg 91%
    19:00 -1°C° 0 mm 1 mps 612 mmHg 90%
    20:00 -1°C° 0 mm 1 mps 612 mmHg 89%
    21:00 -2°C° 0 mm 1 mps 611 mmHg 88%
    22:00 -2°C° 0 mm 1 mps 611 mmHg 88%
    23:00 -2°C° 0 mm 1 mps 611 mmHg 88%
    Show more